Location: ???????
(55.9142°N, 37.8256°E)
Time: 13:20:19
(UTC+00:00)

Cosmos 1536 - Visible Passes

Search period start: 12 July 2024 00:00
Search period end: 22 July 2024 00:00
Orbit: 515 x 539 km, 82.6° (Epoch: 11 July)

Date Brightness Start Highest point End Pass type
(mag) Time Alt. Az. Time Alt. Az. Time Alt. Az.
18 Jul 4.6 00:09:35 10° SSE 00:13:03 30° E 00:16:32 10° NNE visible
18 Jul 4.7 23:58:07 10° SSE 00:01:30 28° E 00:04:55 10° NNE visible
19 Jul 4.7 23:46:40 10° SE 23:49:57 26° E 23:53:16 10° NNE visible
20 Jul 4.8 23:35:12 10° SE 23:38:23 24° E 23:41:36 10° NE visible
21 Jul 4.9 23:23:44 10° SE 23:26:50 22° E 23:29:56 10° NE visible
